BEESAT-3

Last updated on Fri Dec 29 2023 00:02:59 GMT+0000 (Coordinated Universal Time)

1 39135U 13015F 23362.42453632 .06152252 74898-5 13528-2 0 9991 2 39135 64.8240 27.7061 0005015 329.0351 31.0533 16.30034882592246
UTC large
Height (km)
Speed (km/s)
/
Latitude / Longitude
Inclination (degrees)
Orbital Period (minutes)
Azimuth
Elevation
Range (km)
Doppler Factor

Next 0 passes for location: London (51.5072 / 0.1276)

Sorry there are no passes over London.